Location: Fouquenies
(49.4624°N, 2.0492°E)
Time: 15:27:07
(UTC+00:00)

CZ-4B R/B - Pass Details

Date: 03 February 2023
Orbit: 809 x 881 km, 99.0° (Epoch: 25 March)

Event Time Altitude Azimuth Distance (km) Brightness Sun altitude
Rises 17:49:41 0° 138° (SE) 3,340 6.0 -9.9°
Reaches altitude 10° 17:52:07 10° 131° (SE) 2,420 5.2 -10.3°
Maximum altitude 17:57:04 39° 64° (ENE) 1,230 3.6 -11.1°
Drops below altitude 10° 18:02:06 10° 357° (N) 2,477 5.6 -11.9°
Sets 18:04:37 0° 350° (N) 3,429 6.4 -12.3°
